Regional Weather Roundup
Issued by NWS

Home | Current Version | Previous Version | Text Only | Print | Product List | Glossary Off
Versions: 1 2 3 4 5 6 7 8 9 10 11 12 13 14 15 16 17 18 19 20 21 22 23 24 25 26 27

000
ASUS45 KTFX 260110
RWRMT
MONTANA REGIONAL WEATHER ROUNDUP
NATIONAL WEATHER SERVICE GREAT FALLS MT
700 PM MDT SUN SEP 25 2016

NOTE: "FAIR" INDICATES FEW OR NO CLOUDS BELOW 12000 FEET WITH NO
SIGNIFICANT WEATHER AND/OR OBSTRUCTIONS TO VISIBILITY.

MTZ001>007-043-260200-
WEST OF THE DIVIDE

CITY           SKY/WX    TMP DP  RH WIND       PRES   REMARKS
KALISPELL      CLOUDY    61  38  42 S6        30.39F
MISSOULA       CLOUDY    66  41  40 S5        30.41S
BUTTE          CLOUDY    60  37  42 NW9       30.45R
MULLAN PASS    CLEAR     51  40  65 VRB3      30.50F
ANACONDA         N/A     61  37  41 CALM      30.43S
DEER LODGE       N/A     61  39  44 N7        30.45R
EUREKA           N/A     64  39  39 SE3       30.38S
HAMILTON         N/A     70  43  37 NW3       30.41S
LIBBY            N/A     68  43  40 CALM      30.37R
PLAINS           N/A     69  40  34 NW1       30.37S
RONAN            N/A     63  40  42 CALM      30.41F
THOMPSON FALLS   N/A     68  43  40 S1        30.40
$$

MTZ008-052>055-260200-
SOUTHWEST MONTANA

CITY           SKY/WX    TMP DP  RH WIND       PRES   REMARKS
BOZEMAN        CLEAR     60  41  49 S7        30.38S
DILLON         CLEAR     65  39  38 CALM      30.41R
W YELLOWSTONE  CLOUDY    54  36  50 SW20      30.49R
ENNIS          MOCLDY    63  37  39 W5        30.47R
THREE FORKS      N/A     65  -5   6 CALM      30.33R
TWIN BRIDGES     N/A     67  36  31 W3        30.35R
$$

MTZ009-010-012-014-046-048-049-054-260200-
EAST SLOPES AND CENTRAL MONTANA

CITY           SKY/WX    TMP DP  RH WIND       PRES   REMARKS
CUT BANK       CLEAR     59  39  47 W23       30.28S
GREAT FALLS    CLEAR     63  40  42 W13       30.28R
MALMSTROM AFB  PTCLDY    66  38  36 W9G20     30.28R
HELENA         PTCLDY    65  40  39 W16       30.36S
CHOTEAU          N/A     61  41  48 NW10      30.32S
CONRAD           N/A     62  45  53 SW9       30.29R
$$

MTZ011-013-016-021-045-047-050-051-260200-
NORTH CENTRAL MONTANA

CITY           SKY/WX    TMP DP  RH WIND       PRES   REMARKS
HAVRE          CLEAR     60  41  49 S8        30.21S
LEWISTOWN      MOCLDY    54  38  54 CALM      30.30S
N BAR RANCH      N/A     57  36  44 W8        30.33F
CHINOOK          N/A     64  37  36 CALM      30.21F
$$

MTZ017>020-022>027-061-062-260200-
NORTHEAST MONTANA

CITY           SKY/WX    TMP DP  RH WIND       PRES   REMARKS
GLASGOW        CLEAR     58  38  47 W12       30.22S
JORDAN           N/A     57  40  52 W6        30.25S
SIDNEY         CLEAR     56  37  49 W8        30.21R
WOLF POINT     CLEAR     59  39  47 W6        30.22R
PLENTYWOOD       N/A     55  32  41 NW9       30.18S
POPLAR           N/A     59  39  47 W7        30.21S
SCOBEY           N/A     56  31  38 CALM      30.18
$$

MTZ028>42-056>058-260200-
SOUTHCENTRAL AND SOUTHEAST MONTANA

CITY           SKY/WX    TMP DP  RH WIND       PRES   REMARKS
BAKER          CLEAR     54  40  59 W13       30.26S
BILLINGS       PTCLDY    64  39  39 SW7       30.30S
LIVINGSTON     CLEAR     63  36  36 W20       30.33F
MILES CITY     CLEAR     59  40  49 W5        30.26F
BIG TIMBER     CLEAR     63  36  36 W22       30.34S
EKALAKA          N/A     53  36  52 W6        30.25S
FORSYTH          N/A     63  37  39 NW3       30.26F
LAUREL           N/A     62  40  44 S3        30.27R
ROUNDUP          N/A     61  36  39 N3        30.18S
$$

REGIONAL REPORTS...DAKOTAS

CITY           SKY/WX    TMP DP  RH WIND       PRES   REMARKS
WILLISTON      CLEAR     56  33  42 NW10      30.18S
MINOT          CLEAR     57  34  41 W17       30.09R
DICKINSON      CLEAR     52  34  50 NW13      30.19S
CROSBY           N/A     52  32  46 NW8       30.18S
WATFORD CITY     N/A     54  34  47 SW5       30.20R
BISMARCK       CLEAR     58  33  39 NW9       30.14R
GRAND FORKS    LGT RAIN  54  48  80 NW10      29.92R
FARGO          CLOUDY    56  45  66 NW8       29.97R
BUFFALO SD       N/A     56  37  49 W10       30.21S
RAPID CITY     CLEAR     54  33  45 N12       30.30S
$$

REGIONAL REPORTS...WYOMING/IDAHO/WASHINGTON

CITY           SKY/WX    TMP DP  RH WIND       PRES   REMARKS
GILLETTE       CLEAR     48  41  76 W5        30.35S
SHERIDAN       CLEAR     56  42  59 W3        30.34R
BUFFALO WY     CLEAR     56  38  50 S3        30.37S
CODY           CLEAR     57  42  57 E7        30.39R
YELLOWSTONE LA   N/A     50  35  56 CALM      30.54S
IDAHO FALLS    CLEAR     62  38  40 S8        30.44F
SALMON         CLEAR     64  39  39 SW3       30.39S
BOISE          CLEAR     73  32  22 NW8       30.36F
SPOKANE          N/A     73  38  27 S7        30.35F
$$

REGIONAL REPORTS...ALBERTA

CITY           SKY/WX    TMP DP  RH WIND       PRES   REMARKS
EDMONTON       PTCLDY    59  37  44 W5        30.15S
CALGARY        MOCLDY    64  36  34 W20G25    30.20R
MEDICINE HAT   PTCLDY    61  37  41 W5        30.20R
CARDSTON         N/A     59  39  47 W14G24      N/A
MILK RIVER       N/A     61  41  48 NW13G18     N/A
$$

REGIONAL REPORTS...SASKATCHEWAN

CITY           SKY/WX    TMP DP  RH WIND       PRES   REMARKS
SWIFT CURRENT  CLEAR     55  32  41 N5        30.19S
REGINA         PTCLDY    48  36  61 W7        30.15S
SASKATOON      PTCLDY    54  34  47 W9        30.14R
CYPRESS HILLS    N/A     52  28  40 NW2         N/A
VAL MARIE        N/A     54  39  58 W7          N/A
ROCKGLEN         N/A     52  32  46 NW6         N/A
ASSINIBOIA       N/A     59  32  36 N1          N/A
$$




USA.gov is the U.S. government's official web portal to all federal, state and local government web resources and services.